JY1SAT (JO-97)

Last updated on Sat Mar 14 2026 00:03:16 GMT+0000 (Coordinated Universal Time)

1 43803U 18099AX 26072.60945063 .00020456 00000+0 69571-3 0 9992 2 43803 97.4248 135.2859 0004923 239.8747 120.2006 15.30462837398993
UTC large
Height (km)
Speed (km/s)
/
Latitude / Longitude
Inclination (degrees)
Orbital Period (minutes)
Azimuth
Elevation
Range (km)
Doppler Factor

Next 0 passes for location: London (51.5072 / 0.1276)

Sorry there are no passes over London.